QPF
0.02 0.01 0.01 0.02 0.02 0.02 0.01 0.01 0.01 0.02 0.02 0.02 0.02 0.03 0.03 0.04 0.04 0.02 0.03 0.04 0.04 0.04 0.05 0.07 0.09 0.07 0.06 0.05 0.04 0.04 0.04 0.04 0.06 0.07 0.06 0.05 0.06 0.06 0.05 0.05 0.06 0.07 0.08
0.02 0.03 0.03 0.03 0.02 0.02 0.01 0.01 0.01 0.01 0.01 0.02 0.02 0.03 0.03 0.03 0.02 0.01 0.01 0.02 0.05 0.06 0.07 0.08 0.08 0.09 0.07 0.06 0.06 0.06 0.04 0.04 0.05 0.06 0.07 0.07 0.06 0.06 0.04 0.05 0.05 0.06 0.06
0.01 0.01 0.02 0.02 0.02 0.03 0.02 0.02 0.02 0.03 0.03 0.05 0.05 0.03 0.03 0.02 0.01 0.01 0.01 0.02 0.03 0.05 0.06 0.07 0.08 0.10 0.07 0.05 0.07 0.09 0.07 0.05 0.04 0.04 0.05 0.05 0.04 0.03 0.03 0.03 0.03 0.04 0.04
0.00 0.00 0.01 0.01 0.02 0.02 0.01 0.01 0.01 0.02 0.04 0.06 0.04 0.03 0.02 0.02 0.02 0.01 0.01 0.02 0.01 0.01 0.02 0.04 0.05 0.09 0.07 0.05 0.06 0.07 0.07 0.05 0.04 0.04 0.03 0.03 0.03 0.03 0.02 0.03 0.03 0.04 0.04
0.01 0.01 0.01 0.02 0.02 0.02 0.01 0.01 0.01 0.02 0.04 0.04 0.03 0.03 0.03 0.04 0.04 0.02 0.01 0.01 0.01 0.01 0.01 0.02 0.02 0.04 0.06 0.04 0.05 0.05 0.05 0.05 0.05 0.05 0.03 0.03 0.04 0.04 0.04 0.04 0.05 0.04 0.04
0.02 0.02 0.02 0.02 0.02 0.02 0.02 0.01 0.01 0.01 0.02 0.02 0.02 0.02 0.03 0.04 0.04 0.02 0.02 0.01 0.02 0.01 0.01 0.01 0.01 0.02 0.03 0.04 0.04 0.04 0.04 0.03 0.04 0.04 0.04 0.05 0.07 0.06 0.05 0.06 0.05 0.04 0.04
0.01 0.02 0.02 0.02 0.02 0.02 0.01 0.01 0.01 0.00 0.01 0.02 0.02 0.02 0.02 0.03 0.02 0.01 0.01 0.02 0.03 0.02 0.01 0.02 0.01 0.01 0.01 0.02 0.02 0.03 0.04 0.03 0.04 0.04 0.05 0.06 0.06 0.05 0.04 0.03 0.02 0.01 0.02
0.01 0.02 0.03 0.03 0.02 0.02 0.02 0.01 0.01 0.00 0.01 0.01 0.01 0.01 0.02 0.02 0.01 0.01 0.01 0.01 0.02 0.02 0.01 0.01 0.00 0.00 0.00 0.01 0.02 0.01 0.02 0.02 0.02 0.04 0.05 0.05 0.04 0.03 0.02 0.02 0.02 0.02 0.02
0.01 0.02 0.03 0.03 0.02 0.02 0.02 0.02 0.01 0.00 0.00 0.01 0.01 0.01 0.02 0.01 0.01 0.01 0.01 0.01 0.01 0.01 0.01 0.01 0.01 0.01 0.00 0.00 0.01 0.02 0.01 0.01 0.02 0.02 0.02 0.02 0.03 0.03 0.02 0.02 0.02 0.02 0.02
0.02 0.02 0.03 0.04 0.03 0.03 0.03 0.03 0.02 0.01 0.01 0.01 0.01 0.01 0.01 0.01 0.01 0.01 0.01 0.01 0.00 0.00 0.00 0.01 0.01 0.01 0.01 0.01 0.01 0.01 0.01 0.01 0.01 0.02 0.02 0.02 0.02 0.03 0.03 0.03 0.02 0.02 0.02
0.02 0.02 0.03 0.04 0.04 0.03 0.03 0.04 0.04 0.03 0.02 0.01 0.01 0.01 0.01 0.01 0.01 0.01 0.01 0.01 0.00 0.00 0.00 0.00 0.00 0.00 0.01 0.01 0.01 0.01 0.01 0.01 0.01 0.01 0.02 0.02 0.02 0.02 0.03 0.04 0.05 0.04 0.02
0.02 0.02 0.02 0.03 0.04 0.04 0.04 0.04 0.04 0.05 0.04 0.02 0.02 0.02 0.01 0.01 0.02 0.02 0.02 0.01 0.01 0.00 0.00 0.00 0.00 0.00 0.00 0.00 0.01 0.01 0.01 0.01 0.00 0.00 0.00 0.01 0.01 0.02 0.02 0.02 0.03 0.05 0.04
0.01 0.02 0.02 0.02 0.03 0.04 0.04 0.04 0.04 0.04 0.04 0.03 0.02 0.02 0.02 0.02 0.02 0.03 0.03 0.02 0.01 0.01 0.00 0.00 0.00 0.00 0.00 0.00 0.01 0.02 0.01 0.00 0.00 0.00 0.00 0.00 0.01 0.01 0.01 0.01 0.01 0.02 0.05
0.00 0.01 0.01 0.01 0.02 0.03 0.03 0.04 0.05 0.05 0.04 0.03 0.03 0.03 0.03 0.03 0.03 0.03 0.05 0.05 0.04 0.02 0.01 0.00 0.01 0.01 0.01 0.01 0.01 0.01 0.01 0.00 0.00 0.00 0.00 0.00 0.00 0.00 0.00 0.01 0.01 0.01 0.03
0.00 0.00 0.01 0.02 0.02 0.03 0.03 0.04 0.05 0.05 0.05 0.04 0.03 0.03 0.03 0.02 0.02 0.03 0.04 0.05 0.06 0.06 0.04 0.02 0.01 0.01 0.01 0.02 0.01 0.01 0.01 0.00 0.00 0.00 0.00 0.00 0.00 0.00 0.00 0.00 0.01 0.01 0.01
0.01 0.01 0.02 0.03 0.04 0.04 0.04 0.04 0.04 0.04 0.05 0.06 0.05 0.03 0.02 0.02 0.02 0.02 0.02 0.03 0.05 0.07 0.07 0.05 0.03 0.01 0.01 0.01 0.01 0.01 0.01 0.00 0.00 0.00 0.00 0.00 0.00 0.00 0.00 0.00 0.01 0.01 0.01
0.04 0.04 0.03 0.03 0.03 0.04 0.03 0.03 0.03 0.04 0.05 0.05 0.06 0.06 0.04 0.02 0.02 0.02 0.02 0.02 0.04 0.06 0.07 0.08 0.06 0.05 0.04 0.02 0.01 0.01 0.01 0.01 0.00 0.00 0.00 0.00 0.00 0.00 0.00 0.01 0.01 0.01 0.01
0.03 0.05 0.05 0.05 0.05 0.04 0.03 0.03 0.03 0.05 0.08 0.08 0.06 0.06 0.05 0.04 0.03 0.03 0.02 0.02 0.04 0.05 0.06 0.07 0.07 0.05 0.05 0.05 0.03 0.02 0.02 0.02 0.01 0.01 0.01 0.00 0.00 0.00 0.00 0.01 0.01 0.01 0.01
0.01 0.02 0.03 0.04 0.05 0.05 0.05 0.04 0.03 0.04 0.06 0.07 0.07 0.07 0.06 0.06 0.04 0.04 0.03 0.03 0.03 0.04 0.06 0.05 0.06 0.05 0.04 0.05 0.04 0.04 0.03 0.03 0.03 0.03 0.02 0.01 0.01 0.01 0.00 0.01 0.01 0.01 0.00
0.01 0.01 0.02 0.03 0.03 0.03 0.03 0.03 0.03 0.04 0.04 0.05 0.06 0.06 0.06 0.07 0.06 0.05 0.05 0.04 0.04 0.04 0.05 0.05 0.05 0.06 0.05 0.05 0.04 0.03 0.02 0.02 0.03 0.04 0.04 0.02 0.01 0.01 0.01 0.01 0.01 0.01 0.00
0.01 0.01 0.01 0.02 0.03 0.03 0.03 0.03 0.03 0.03 0.03 0.04 0.05 0.05 0.05 0.05 0.06 0.06 0.05 0.04 0.03 0.03 0.03 0.04 0.04 0.05 0.05 0.05 0.05 0.04 0.03 0.02 0.02 0.02 0.02 0.02 0.01 0.01 0.01 0.01 0.01 0.01 0.01
0.01 0.01 0.01 0.02 0.02 0.02 0.02 0.02 0.02 0.02 0.02 0.02 0.02 0.04 0.05 0.04 0.05 0.06 0.06 0.05 0.04 0.03 0.03 0.03 0.04 0.04 0.05 0.05 0.05 0.04 0.03 0.03 0.03 0.02 0.02 0.02 0.01 0.01 0.01 0.01 0.01 0.01 0.01
0.01 0.01 0.02 0.02 0.02 0.01 0.01 0.01 0.02 0.02 0.02 0.02 0.01 0.01 0.02 0.03 0.05 0.06 0.07 0.06 0.04 0.03 0.02 0.02 0.02 0.02 0.03 0.04 0.03 0.03 0.02 0.02 0.01 0.01 0.01 0.02 0.02 0.01 0.01 0.01 0.01 0.01 0.01
0.01 0.00 0.00 0.00 0.01 0.01 0.01 0.01 0.01 0.02 0.02 0.02 0.03 0.02 0.01 0.02 0.04 0.05 0.07 0.07 0.06 0.03 0.02 0.01 0.01 0.02 0.03 0.04 0.04 0.02 0.02 0.02 0.01 0.01 0.01 0.02 0.02 0.02 0.02 0.02 0.02 0.01 0.01
0.01 0.01 0.01 0.00 0.00 0.00 0.01 0.01 0.01 0.01 0.02 0.03 0.03 0.02 0.01 0.01 0.02 0.04 0.04 0.06 0.08 0.07 0.05 0.03 0.02 0.02 0.03 0.04 0.05 0.04 0.02 0.01 0.01 0.02 0.02 0.03 0.03 0.03 0.02 0.02 0.02 0.02 0.01
0.01 0.01 0.01 0.01 0.01 0.01 0.01 0.01 0.01 0.01 0.02 0.03 0.03 0.03 0.01 0.01 0.01 0.02 0.03 0.03 0.05 0.08 0.10 0.07 0.04 0.03 0.02 0.02 0.03 0.04 0.04 0.02 0.01 0.02 0.03 0.04 0.04 0.04 0.03 0.03 0.02 0.02 0.01
MSLP
1014.43 1014.44 1014.40 1014.33 1014.28 1014.27 1014.31 1014.40 1014.53 1014.64 1014.70 1014.67 1014.53 1014.27 1013.91 1013.49 1013.04 1012.61 1012.23 1011.92 1011.69 1011.55 1011.49 1011.49 1011.56 1011.69 1011.86 1012.07 1012.31 1012.57 1012.84 1013.10 1013.36 1013.60 1013.83 1014.05 1014.28 1014.51 1014.74 1014.99 1015.24 1015.48 1015.71
1014.46 1014.50 1014.50 1014.50 1014.51 1014.55 1014.65 1014.79 1014.95 1015.11 1015.21 1015.22 1015.13 1014.91 1014.60 1014.20 1013.76 1013.31 1012.89 1012.54 1012.25 1012.05 1011.93 1011.89 1011.91 1012.00 1012.14 1012.32 1012.53 1012.76 1013.01 1013.25 1013.49 1013.72 1013.95 1014.19 1014.42 1014.66 1014.90 1015.14 1015.38 1015.62 1015.84
1014.45 1014.53 1014.60 1014.67 1014.75 1014.86 1015.01 1015.20 1015.40 1015.59 1015.74 1015.80 1015.76 1015.61 1015.35 1015.00 1014.59 1014.15 1013.72 1013.32 1012.98 1012.71 1012.52 1012.41 1012.37 1012.39 1012.48 1012.60 1012.76 1012.95 1013.15 1013.36 1013.58 1013.80 1014.03 1014.27 1014.51 1014.76 1015.01 1015.26 1015.50 1015.72 1015.93
1014.44 1014.58 1014.71 1014.86 1015.01 1015.19 1015.40 1015.62 1015.86 1016.08 1016.26 1016.38 1016.40 1016.33 1016.15 1015.87 1015.51 1015.11 1014.68 1014.26 1013.87 1013.53 1013.26 1013.06 1012.94 1012.88 1012.88 1012.93 1013.02 1013.15 1013.29 1013.46 1013.64 1013.84 1014.06 1014.30 1014.55 1014.80 1015.06 1015.32 1015.56 1015.79 1016.00
1014.45 1014.64 1014.85 1015.07 1015.30 1015.53 1015.78 1016.03 1016.29 1016.53 1016.74 1016.90 1016.99 1017.00 1016.91 1016.73 1016.46 1016.11 1015.72 1015.30 1014.88 1014.49 1014.15 1013.86 1013.64 1013.48 1013.38 1013.34 1013.34 1013.39 1013.46 1013.57 1013.71 1013.88 1014.07 1014.30 1014.55 1014.81 1015.07 1015.34 1015.59 1015.82 1016.03
1014.49 1014.73 1015.00 1015.28 1015.56 1015.85 1016.12 1016.39 1016.64 1016.89 1017.11 1017.31 1017.46 1017.56 1017.57 1017.50 1017.34 1017.09 1016.76 1016.37 1015.96 1015.54 1015.14 1014.77 1014.46 1014.20 1014.00 1013.86 1013.77 1013.72 1013.71 1013.75 1013.83 1013.95 1014.12 1014.33 1014.56 1014.82 1015.09 1015.36 1015.62 1015.86 1016.09
1014.54 1014.82 1015.13 1015.46 1015.78 1016.09 1016.37 1016.63 1016.87 1017.11 1017.34 1017.56 1017.77 1017.94 1018.07 1018.12 1018.09 1017.95 1017.72 1017.40 1017.02 1016.61 1016.18 1015.76 1015.38 1015.04 1014.75 1014.51 1014.32 1014.18 1014.08 1014.04 1014.06 1014.13 1014.26 1014.44 1014.66 1014.91 1015.18 1015.46 1015.73 1015.98 1016.22
1014.56 1014.86 1015.20 1015.56 1015.90 1016.22 1016.49 1016.74 1016.95 1017.16 1017.39 1017.62 1017.88 1018.13 1018.36 1018.54 1018.63 1018.63 1018.52 1018.30 1018.00 1017.63 1017.21 1016.79 1016.37 1015.97 1015.61 1015.29 1015.02 1014.79 1014.61 1014.50 1014.44 1014.46 1014.55 1014.69 1014.90 1015.14 1015.40 1015.68 1015.96 1016.23 1016.48
1014.52 1014.83 1015.18 1015.55 1015.90 1016.21 1016.47 1016.69 1016.88 1017.06 1017.26 1017.51 1017.79 1018.11 1018.43 1018.72 1018.95 1019.09 1019.11 1019.02 1018.82 1018.52 1018.16 1017.77 1017.35 1016.94 1016.55 1016.18 1015.84 1015.55 1015.30 1015.12 1015.01 1014.97 1015.01 1015.12 1015.30 1015.53 1015.79 1016.06 1016.34 1016.62 1016.89
1014.39 1014.70 1015.05 1015.42 1015.77 1016.08 1016.32 1016.51 1016.67 1016.83 1017.02 1017.26 1017.56 1017.92 1018.31 1018.70 1019.04 1019.31 1019.46 1019.50 1019.42 1019.24 1018.97 1018.64 1018.27 1017.89 1017.50 1017.11 1016.75 1016.41 1016.12 1015.88 1015.72 1015.63 1015.63 1015.71 1015.86 1016.07 1016.32 1016.59 1016.87 1017.15 1017.42
1014.16 1014.46 1014.81 1015.18 1015.53 1015.83 1016.07 1016.25 1016.39 1016.53 1016.70 1016.93 1017.24 1017.63 1018.06 1018.52 1018.95 1019.32 1019.59 1019.75 1019.80 1019.73 1019.58 1019.35 1019.06 1018.74 1018.39 1018.03 1017.66 1017.32 1017.00 1016.73 1016.53 1016.40 1016.36 1016.41 1016.54 1016.73 1016.96 1017.22 1017.49 1017.76 1018.03
1013.84 1014.14 1014.49 1014.87 1015.22 1015.53 1015.76 1015.94 1016.08 1016.21 1016.37 1016.59 1016.90 1017.29 1017.75 1018.24 1018.72 1019.16 1019.52 1019.79 1019.95 1020.00 1019.97 1019.85 1019.67 1019.44 1019.16 1018.85 1018.52 1018.19 1017.87 1017.59 1017.36 1017.21 1017.14 1017.16 1017.26 1017.43 1017.65 1017.89 1018.14 1018.40 1018.66
1013.44 1013.75 1014.12 1014.50 1014.86 1015.18 1015.44 1015.63 1015.77 1015.91 1016.06 1016.28 1016.58 1016.96 1017.42 1017.91 1018.42 1018.89 1019.31 1019.65 1019.90 1020.06 1020.14 1020.14 1020.08 1019.95 1019.77 1019.53 1019.26 1018.97 1018.67 1018.39 1018.16 1017.99 1017.91 1017.90 1017.98 1018.13 1018.32 1018.55 1018.78 1019.02 1019.26
1012.99 1013.32 1013.70 1014.10 1014.48 1014.82 1015.10 1015.32 1015.48 1015.63 1015.80 1016.02 1016.31 1016.67 1017.10 1017.58 1018.07 1018.55 1019.00 1019.38 1019.70 1019.94 1020.12 1020.24 1020.29 1020.28 1020.20 1020.06 1019.86 1019.62 1019.36 1019.11 1018.89 1018.72 1018.62 1018.61 1018.67 1018.79 1018.97 1019.17 1019.38 1019.60 1019.81
1012.50 1012.85 1013.25 1013.67 1014.08 1014.44 1014.75 1015.00 1015.20 1015.37 1015.56 1015.78 1016.06 1016.41 1016.81 1017.26 1017.72 1018.19 1018.63 1019.03 1019.39 1019.70 1019.96 1020.18 1020.34 1020.43 1020.46 1020.42 1020.31 1020.15 1019.95 1019.73 1019.53 1019.38 1019.28 1019.26 1019.30 1019.41 1019.57 1019.75 1019.94 1020.13 1020.32
1011.96 1012.35 1012.77 1013.20 1013.63 1014.02 1014.35 1014.63 1014.87 1015.08 1015.29 1015.53 1015.81 1016.14 1016.52 1016.94 1017.37 1017.81 1018.23 1018.63 1019.02 1019.37 1019.70 1020.00 1020.26 1020.46 1020.60 1020.66 1020.65 1020.56 1020.43 1020.27 1020.11 1019.97 1019.89 1019.87 1019.91 1020.00 1020.14 1020.31 1020.48 1020.65 1020.81
1011.38 1011.79 1012.22 1012.67 1013.11 1013.52 1013.87 1014.18 1014.45 1014.69 1014.94 1015.20 1015.49 1015.83 1016.20 1016.59 1017.00 1017.41 1017.82 1018.22 1018.61 1019.00 1019.38 1019.75 1020.09 1020.39 1020.62 1020.79 1020.87 1020.88 1020.83 1020.73 1020.62 1020.52 1020.46 1020.45 1020.49 1020.58 1020.70 1020.85 1021.00 1021.16 1021.30
1010.74 1011.16 1011.62 1012.07 1012.52 1012.93 1013.30 1013.62 1013.91 1014.19 1014.46 1014.76 1015.08 1015.42 1015.80 1016.19 1016.59 1016.99 1017.39 1017.79 1018.20 1018.61 1019.03 1019.45 1019.86 1020.24 1020.57 1020.84 1021.02 1021.12 1021.15 1021.13 1021.07 1021.02 1020.99 1020.99 1021.04 1021.12 1021.24 1021.37 1021.51 1021.65 1021.78
1010.03 1010.47 1010.93 1011.39 1011.83 1012.24 1012.61 1012.95 1013.26 1013.56 1013.86 1014.18 1014.54 1014.91 1015.31 1015.71 1016.12 1016.53 1016.93 1017.34 1017.76 1018.19 1018.65 1019.12 1019.59 1020.04 1020.45 1020.80 1021.07 1021.26 1021.38 1021.43 1021.45 1021.44 1021.45 1021.47 1021.53 1021.61 1021.72 1021.84 1021.96 1022.09 1022.20
1009.26 1009.73 1010.20 1010.66 1011.09 1011.49 1011.85 1012.19 1012.50 1012.81 1013.14 1013.50 1013.88 1014.29 1014.72 1015.15 1015.59 1016.01 1016.43 1016.85 1017.29 1017.74 1018.22 1018.73 1019.24 1019.75 1020.23 1020.65 1021.01 1021.28 1021.48 1021.61 1021.69 1021.74 1021.78 1021.83 1021.89 1021.98 1022.07 1022.18 1022.29 1022.40 1022.51
1008.46 1008.94 1009.42 1009.89 1010.32 1010.71 1011.06 1011.38 1011.69 1012.01 1012.35 1012.73 1013.14 1013.58 1014.05 1014.52 1014.98 1015.43 1015.88 1016.32 1016.77 1017.24 1017.73 1018.26 1018.81 1019.35 1019.88 1020.37 1020.79 1021.14 1021.42 1021.62 1021.76 1021.86 1021.94 1022.01 1022.08 1022.16 1022.25 1022.34 1022.44 1022.53 1022.64
1007.64 1008.15 1008.65 1009.12 1009.55 1009.93 1010.27 1010.58 1010.88 1011.19 1011.54 1011.93 1012.36 1012.84 1013.33 1013.83 1014.32 1014.80 1015.27 1015.72 1016.18 1016.66 1017.17 1017.70 1018.26 1018.83 1019.40 1019.93 1020.41 1020.82 1021.16 1021.42 1021.62 1021.76 1021.87 1021.96 1022.05 1022.13 1022.20 1022.28 1022.37 1022.45 1022.55
1006.82 1007.36 1007.88 1008.37 1008.81 1009.19 1009.52 1009.81 1010.10 1010.41 1010.75 1011.15 1011.59 1012.08 1012.60 1013.12 1013.64 1014.14 1014.62 1015.08 1015.54 1016.02 1016.52 1017.05 1017.61 1018.19 1018.77 1019.33 1019.84 1020.30 1020.69 1021.01 1021.25 1021.44 1021.59 1021.70 1021.79 1021.87 1021.94 1022.01 1022.08 1022.16 1022.25
1006.00 1006.57 1007.13 1007.64 1008.09 1008.47 1008.80 1009.09 1009.37 1009.67 1010.02 1010.41 1010.87 1011.37 1011.89 1012.43 1012.96 1013.47 1013.95 1014.41 1014.87 1015.33 1015.81 1016.33 1016.87 1017.44 1018.02 1018.60 1019.13 1019.63 1020.06 1020.42 1020.71 1020.94 1021.12 1021.25 1021.36 1021.44 1021.51 1021.57 1021.63 1021.71 1021.80
1005.16 1005.77 1006.35 1006.89 1007.36 1007.76 1008.09 1008.39 1008.67 1008.98 1009.33 1009.73 1010.19 1010.70 1011.23 1011.78 1012.31 1012.82 1013.29 1013.74 1014.18 1014.62 1015.08 1015.57 1016.10 1016.65 1017.22 1017.79 1018.34 1018.86 1019.32 1019.71 1020.04 1020.31 1020.52 1020.68 1020.81 1020.90 1020.98 1021.04 1021.11 1021.18 1021.27
1004.29 1004.91 1005.51 1006.07 1006.56 1006.98 1007.34 1007.66 1007.96 1008.29 1008.66 1009.08 1009.55 1010.07 1010.62 1011.17 1011.70 1012.20 1012.67 1013.11 1013.53 1013.94 1014.38 1014.84 1015.34 1015.87 1016.42 1016.99 1017.54 1018.07 1018.55 1018.97 1019.34 1019.64 1019.88 1020.08 1020.23 1020.34 1020.43 1020.51 1020.58 1020.65 1020.74
Thickness
5718 5717 5716 5715 5715 5714 5714 5713 5713 5712 5712 5712 5711 5710 5709 5708 5708 5707 5708 5709 5710 5710 5710 5710 5710 5710 5710 5710 5710 5709 5710 5710 5710 5710 5710 5710 5710 5710 5710 5710 5710 5711 5711
5715 5714 5712 5711 5710 5710 5710 5709 5708 5708 5707 5707 5706 5706 5705 5704 5703 5702 5702 5703 5704 5704 5704 5704 5704 5705 5704 5704 5704 5703 5703 5704 5704 5704 5704 5704 5704 5704 5704 5704 5704 5705 5705
5712 5710 5709 5707 5707 5706 5706 5705 5704 5704 5703 5702 5701 5701 5700 5699 5698 5698 5697 5697 5698 5698 5698 5698 5698 5698 5698 5698 5698 5697 5697 5697 5697 5697 5697 5697 5698 5698 5698 5698 5698 5699 5699
5709 5707 5705 5703 5703 5702 5701 5700 5698 5697 5696 5695 5695 5695 5695 5694 5693 5693 5692 5692 5692 5691 5692 5692 5692 5692 5692 5692 5691 5691 5691 5691 5691 5691 5691 5691 5691 5691 5691 5692 5692 5692 5692
5706 5704 5701 5700 5699 5698 5696 5696 5693 5692 5690 5689 5689 5689 5689 5689 5688 5688 5687 5687 5687 5686 5686 5686 5686 5686 5686 5686 5685 5685 5685 5684 5684 5684 5685 5685 5685 5685 5685 5686 5686 5686 5687
5702 5700 5698 5696 5695 5693 5691 5690 5688 5687 5686 5685 5685 5684 5683 5683 5684 5683 5683 5683 5682 5682 5681 5681 5681 5680 5680 5680 5680 5680 5680 5679 5679 5679 5679 5679 5679 5679 5679 5679 5680 5681 5681
5698 5696 5694 5693 5691 5689 5687 5686 5684 5681 5680 5680 5677 5675 5676 5678 5678 5678 5679 5679 5678 5677 5676 5676 5675 5675 5675 5674 5675 5675 5675 5674 5674 5674 5674 5674 5674 5674 5674 5674 5674 5675 5675
5694 5692 5691 5688 5687 5685 5682 5681 5680 5676 5675 5675 5671 5667 5664 5666 5670 5673 5673 5673 5673 5673 5672 5671 5670 5670 5670 5669 5669 5670 5669 5669 5669 5669 5669 5669 5668 5668 5669 5669 5669 5669 5670
5690 5688 5687 5685 5683 5681 5678 5677 5676 5673 5670 5670 5669 5665 5659 5657 5660 5664 5666 5667 5668 5667 5667 5667 5666 5665 5665 5664 5664 5664 5664 5664 5663 5664 5664 5663 5663 5663 5663 5663 5663 5663 5664
5685 5684 5682 5681 5679 5677 5675 5674 5673 5671 5668 5665 5665 5665 5664 5661 5655 5654 5658 5661 5662 5662 5662 5663 5662 5661 5660 5660 5659 5659 5659 5658 5658 5658 5658 5658 5658 5658 5658 5658 5658 5658 5659
5681 5679 5678 5676 5675 5673 5672 5671 5669 5668 5666 5663 5661 5660 5659 5658 5656 5652 5650 5653 5655 5657 5658 5658 5658 5657 5656 5655 5654 5654 5654 5653 5653 5652 5652 5652 5652 5653 5653 5654 5654 5654 5654
5675 5675 5674 5672 5671 5669 5668 5667 5666 5665 5663 5662 5660 5659 5657 5655 5653 5649 5647 5646 5647 5650 5653 5653 5653 5652 5652 5651 5650 5649 5649 5648 5648 5647 5647 5647 5648 5648 5648 5649 5649 5650 5650
5669 5670 5670 5668 5667 5666 5665 5664 5663 5661 5660 5659 5658 5657 5656 5655 5654 5651 5647 5643 5643 5644 5646 5647 5648 5648 5647 5647 5646 5645 5644 5643 5643 5643 5642 5642 5642 5643 5643 5643 5644 5644 5645
5667 5666 5665 5664 5663 5662 5661 5660 5658 5658 5657 5656 5656 5655 5653 5653 5652 5651 5647 5642 5638 5638 5639 5641 5643 5643 5643 5643 5642 5641 5640 5639 5639 5638 5638 5637 5637 5637 5637 5638 5638 5639 5640
5664 5663 5661 5660 5659 5658 5657 5655 5654 5653 5653 5652 5652 5651 5650 5649 5649 5648 5647 5645 5639 5633 5633 5636 5637 5639 5639 5638 5637 5636 5635 5635 5634 5633 5633 5633 5632 5632 5632 5632 5633 5633 5633
5660 5659 5657 5656 5655 5653 5652 5651 5649 5648 5647 5647 5646 5645 5644 5644 5643 5643 5642 5641 5640 5636 5631 5633 5633 5635 5634 5634 5633 5632 5631 5630 5629 5628 5628 5628 5627 5627 5627 5627 5627 5627 5627
5656 5654 5653 5651 5650 5648 5647 5645 5644 5643 5642 5641 5640 5639 5639 5639 5638 5637 5637 5636 5635 5633 5630 5628 5629 5629 5628 5628 5627 5627 5626 5625 5624 5623 5623 5622 5622 5622 5622 5622 5621 5621 5621
5652 5650 5648 5646 5644 5643 5641 5640 5639 5637 5636 5635 5634 5633 5633 5634 5633 5632 5631 5630 5629 5629 5627 5623 5623 5623 5623 5623 5622 5621 5620 5620 5619 5619 5618 5617 5617 5616 5616 5616 5616 5616 5615
5647 5645 5643 5640 5639 5637 5636 5635 5634 5632 5631 5630 5629 5628 5628 5627 5626 5626 5625 5625 5624 5624 5622 5619 5617 5617 5617 5616 5615 5615 5615 5614 5613 5613 5613 5612 5611 5611 5610 5610 5610 5610 5610
5642 5640 5638 5636 5634 5632 5631 5630 5628 5627 5626 5625 5624 5624 5623 5623 5622 5621 5620 5619 5618 5617 5615 5613 5611 5610 5609 5609 5608 5607 5606 5606 5607 5607 5607 5607 5606 5605 5605 5605 5605 5605 5605
5638 5635 5633 5630 5629 5627 5626 5624 5623 5622 5620 5619 5619 5619 5619 5619 5619 5617 5616 5614 5613 5610 5608 5606 5604 5603 5602 5601 5602 5601 5600 5599 5599 5600 5600 5600 5600 5600 5599 5599 5599 5599 5599
5632 5630 5627 5625 5623 5623 5622 5620 5618 5616 5615 5613 5612 5612 5613 5613 5613 5613 5612 5611 5609 5607 5604 5602 5600 5599 5598 5598 5597 5596 5593 5591 5591 5594 5593 5593 5593 5593 5594 5594 5594 5594 5594
5626 5624 5621 5619 5617 5616 5616 5615 5613 5611 5609 5608 5607 5606 5607 5608 5607 5606 5605 5606 5605 5604 5604 5602 5598 5598 5596 5596 5593 5590 5588 5587 5587 5589 5586 5586 5586 5586 5588 5588 5588 5588 5588
5619 5618 5616 5614 5612 5611 5610 5609 5607 5604 5603 5602 5602 5601 5600 5600 5601 5600 5599 5598 5598 5598 5598 5598 5597 5597 5596 5594 5591 5589 5587 5583 5582 5581 5581 5579 5580 5580 5582 5583 5583 5583 5582
5611 5610 5609 5607 5605 5603 5603 5602 5601 5597 5595 5595 5595 5595 5595 5594 5595 5594 5592 5591 5590 5591 5592 5592 5593 5592 5591 5589 5586 5582 5578 5575 5574 5574 5574 5572 5573 5572 5574 5576 5577 5576 5576
5604 5603 5601 5599 5598 5597 5596 5595 5594 5591 5588 5587 5587 5588 5589 5588 5589 5587 5586 5584 5583 5584 5584 5585 5584 5584 5583 5582 5580 5578 5575 5570 5568 5567 5568 5566 5565 5564 5565 5568 5568 5569 5569